Regional Weather Roundup
Issued by NWS

Home | Current Version | Previous Version | Text Only | Print | Product List | Glossary On
Versions: 1 2 3 4 5 6 7 8 9 10 11 12 13 14 15 16 17 18 19 20 21 22 23 24 25 26 27 28 29 30 31 32 33 34 35 36 37 38 39 40 41 42 43 44 45 46 47 48 49 50
000
ASUS43 KTOP 280708
RWRKS

WEATHER ROUNDUP FOR KANSAS
NATIONAL WEATHER SERVICE GOODLAND KS
100 AM CST SUN DEC 28 2014

NOTE:  "FAIR" INDICATES FEW OR NO CLOUDS BELOW 12,000 FEET WITH NO
SIGNIFICANT WEATHER AND/OR OBSTRUCTIONS TO VISIBILITY.

KSZ001>006-013>018-027>032-041>047-280800-
NORTHWEST KANSAS

CITY           SKY/WX    TMP DP  RH WIND       PRES   REMARKS
GOODLAND       PTCLDY    17  11  77 SW9       30.11F
HAYS           CLEAR     16   5  62 W5        30.20F
HILL CITY      PTCLDY    11   6  81 SW6       30.20F
RUSSELL        CLEAR     14  12  92 SW9       30.20F
$$

KSZ061>065-074>080-084>089-280800-
SOUTHWEST KANSAS

CITY           SKY/WX    TMP DP  RH WIND       PRES   REMARKS
DODGE CITY     CLEAR     18  12  77 W6        30.21F
ELKHART          N/A     21  13  71 SW9         N/A
GARDEN CITY    PTCLDY    13  10  88 W7        30.19F
GREAT BEND     CLEAR     16   9  73 SW8       30.24F
LIBERAL        CLEAR     18   9  68 SW7       30.21F
PRATT          CLEAR     18  14  86 SW6       30.25F
$$

KSZ066>073-081>083-090>101-280800-
SOUTHEAST KANSAS

CITY           SKY/WX    TMP DP  RH WIND       PRES   REMARKS
CHANUTE        CLEAR     22  18  85 NW6       30.28F
COFFEYVILLE    CLEAR     24  18  77 NW7       30.30S
HUTCHINSON     CLEAR     16  12  84 CALM      30.26F
MEDICINE LODGE   N/A     16  14  92 N3        30.27F
NEWTON         CLEAR     21  12  68 CALM      30.26F
PARSONS        CLEAR     21  18  88 N5        30.29F
WICHITA INTL   CLEAR     17  12  80 S5        30.28F
WICHITA JABRA  CLEAR     16  12  84 S5        30.27F
WICHITA MCCONL CLEAR     21  15  78 CALM      30.27F
WINFIELD       CLEAR     22  18  85 CALM      30.29F
$$

KSZ007>012-019>026-033>040-048>060-102>105-280800-
NORTHEAST KANSAS

CITY           SKY/WX    TMP DP  RH WIND       PRES   REMARKS
CONCORDIA      CLEAR     20  15  81 W6        30.22F
EMPORIA        CLEAR     18  14  84 SW5       30.26F
LAWRENCE       CLEAR     17  15  92 SE3       30.27F
MANHATTAN      CLEAR     17  14  88 SW6       30.26F
MARYSVILLE     CLEAR     18  14  86 S3        30.22F
OLATHE IND     CLEAR     22  17  81 CALM      30.26F
OLATHE EXE     CLEAR     22  18  85 CALM      30.25F
SALINA         CLEAR     20  14  77 SW9       30.26F
TOPEKA BILLARD CLEAR     22  19  89 CALM      30.27F
TOPEKA FORBES  CLEAR     19  15  84 SW5       30.25F
$$


USA.gov is the U.S. government's official web portal to all federal, state and local government web resources and services.